GW0756 Weather Reports


time (UTC)temp
F
wind
direction
speed
knots
gust
knots
rain 1hr
in
rain 24hr
in
rain mn
in
humidity
%
barometer
mb
20260906175254 102 122 0.9 1.7 0.00 0.00 0.00 38 1016.2
20260906174752 102 95 0.0 0.9 0.00 0.00 0.00 41 1016.5
20260906174252 101 131 0.0 0.9 0.00 0.00 0.00 39 1016.2
20260906173747 101 120 0.9 1.7 0.00 0.00 0.00 39 1016.7
20260906173243 101 60 0.9 0.9 0.00 0.00 0.00 39 1016.5
20260906172742 101 109 0.0 0.0 0.00 0.00 0.00 38 1016.5
20260906172237 102 102 0.9 0.9 0.00 0.00 0.00 38 1016.7
20260906171732 101 80 0.9 0.9 0.00 0.00 0.00 38 1016.7
20260906171228 100 98 0.0 0.9 0.00 0.00 0.00 42 1016.8
20260906170724 100 101 0.9 0.9 0.00 0.00 0.00 42 1017.0
20260906170219 99 122 0.0 0.0 0.00 0.00 0.00 40 1016.9
20260906165715 99 131 0.9 0.9 0.00 0.00 0.00 41 1017.0
20260906165210 101 123 3.5 5.2 0.00 0.00 0.00 39 1017.0
20260906164709 101 92 0.9 0.9 0.00 0.00 0.00 40 1017.0
20260906164204 101 154 0.9 0.9 0.00 0.00 0.00 39 1017.1
20260906163700 100 103 0.0 0.0 0.00 0.00 0.00 42 1017.0
20260906163156 98 118 0.9 0.9 0.00 0.00 0.00 45 1017.2
20260906162653 99 142 0.9 2.6 0.00 0.00 0.00 43 1017.3
20260906162152 98 113 2.6 2.6 0.00 0.00 0.00 45 1017.2
20260906161647 97 123 0.0 0.0 0.00 0.00 0.00 46 1017.1
20260906161146 97 48 0.0 0.9 0.00 0.00 0.00 47 1017.1
20260906160646 96 117 0.0 0.0 0.00 0.00 0.00 46 1017.3
20260906160144 95 85 0.0 0.9 0.00 0.00 0.00 48 1017.1
20260906155642 95 86 0.0 0.0 0.00 0.00 0.00 47 1016.8
20260906155138 95 93 0.9 0.9 0.00 0.00 0.00 49 1017.2
20260906154632 94 83 0.9 0.9 0.00 0.00 0.00 50 1017.0
20260906154127 93 90 0.0 0.0 0.00 0.00 0.00 52 1017.2
20260906153626 93 50 0.0 0.9 0.00 0.00 0.00 52 1017.1
20260906153121 92 98 0.0 0.0 0.00 0.00 0.00 52 1017.0
20260906152621 91 122 0.0 0.9 0.00 0.00 0.00 55 1017.0
20260906152115 91 122 0.9 0.9 0.00 0.00 0.00 55 1017.3
20260906151610 91 126 0.9 0.9 0.00 0.00 0.00 56 1017.0
20260906151106 90 119 0.0 0.0 0.00 0.00 0.00 58 1017.1
20260906150601 90 74 0.9 1.7 0.00 0.00 0.00 56 1017.2
20260906150056 90 90 0.9 0.9 0.00 0.00 0.00 58 1017.1
20260906145555 89 106 0.0 0.0 0.00 0.00 0.00 59 1017.0
20260906145050 88 84 0.0 0.0 0.00 0.00 0.00 60 1017.0
20260906144544 87 105 0.0 0.0 0.00 0.00 0.00 61 1017.1
20260906144040 87 116 0.0 0.0 0.00 0.00 0.00 63 1016.9
20260906143534 87 115 0.0 0.0 0.00 0.00 0.00 63 1016.9
20260906143031 87 36 0.0 0.9 0.00 0.00 0.00 63 1017.1
20260906142525 86 95 0.0 0.0 0.00 0.00 0.00 64 1016.9
20260906142021 86 81 0.9 0.9 0.00 0.00 0.00 64 1016.9
20260906141519 85 107 0.0 0.0 0.00 0.00 0.00 66 1016.9
20260906141009 85 64 0.9 0.9 0.00 0.00 0.00 67 1017.0
20260906140503 84 95 0.0 0.0 0.00 0.00 0.00 68 1016.7
20260906140002 84 65 0.0 0.0 0.00 0.00 0.00 69 1016.5
20260906135459 83 45 0.9 0.9 0.00 0.00 0.00 68 1016.6
20260906134955 83 97 0.0 0.9 0.00 0.00 0.00 70 1016.7
20260906134451 82 73 0.0 0.0 0.00 0.00 0.00 71 1016.7
20260906133951 82 73 0.0 0.0 0.00 0.00 0.00 72 1016.9
20260906133446 81 73 0.0 0.0 0.00 0.00 0.00 72 1016.5
20260906132942 81 73 0.0 0.0 0.00 0.00 0.00 74 1016.7
20260906132437 80 80 0.0 0.0 0.00 0.00 0.00 75 1016.5
20260906131932 80 90 0.0 0.0 0.00 0.00 0.00 76 1016.3
20260906131428 79 90 0.0 0.0 0.00 0.00 0.00 77 1016.4
20260906130924 79 90 0.0 0.0 0.00 0.00 0.00 77 1016.3
20260906130423 78 90 0.0 0.0 0.00 0.00 0.00 77 1016.1
20260906125923 78 96 0.0 0.0 0.00 0.00 0.00 78 1016.3
20260906125420 78 96 0.0 0.0 0.00 0.00 0.00 79 1016.0
20260906124920 77 96 0.0 0.0 0.00 0.00 0.00 79 1016.4
20260906124416 76 102 0.0 0.0 0.00 0.00 0.00 81 1016.2
20260906123910 76 106 0.0 0.0 0.00 0.00 0.00 82 1016.2
20260906123409 76 107 0.0 0.0 0.00 0.00 0.00 83 1016.2
20260906122904 75 107 0.0 0.0 0.00 0.00 0.00 83 1016.0
20260906122359 75 107 0.0 0.0 0.00 0.00 0.00 84 1015.9
20260906121856 74 115 0.0 0.0 0.00 0.00 0.00 85 1016.1
20260906121351 74 115 0.0 0.0 0.00 0.00 0.00 85 1016.0
20260906120847 74 115 0.0 0.0 0.00 0.00 0.00 85 1015.7
20260906120343 74 115 0.0 0.0 0.00 0.00 0.00 85 1015.8
20260906115839 74 115 0.0 0.0 0.00 0.00 0.00 85 1015.9
20260906115334 74 115 0.0 0.0 0.00 0.00 0.00 86 1016.0
20260906114833 74 115 0.0 0.0 0.00 0.00 0.00 86 1015.8
20260906114329 74 115 0.0 0.0 0.00 0.00 0.00 87 1015.7
20260906113824 74 115 0.0 0.0 0.00 0.00 0.00 87 1015.9
20260906113323 74 115 0.0 0.0 0.00 0.00 0.00 86 1015.9
20260906112818 74 115 0.0 0.0 0.00 0.00 0.00 86 1015.7
20260906112315 74 115 0.0 0.0 0.00 0.00 0.00 85 1015.8
20260906111814 74 115 0.0 0.0 0.00 0.00 0.00 86 1015.9
20260906111314 74 115 0.0 0.0 0.00 0.00 0.00 85 1015.6
20260906110809 74 115 0.0 0.0 0.00 0.00 0.00 85 1015.7
20260906110305 74 115 0.0 0.0 0.00 0.00 0.00 85 1015.5
20260906105804 74 115 0.0 0.0 0.00 0.00 0.00 86 1015.5
20260906105259 73 115 0.0 0.0 0.00 0.00 0.00 86 1015.5
20260906104755 73 115 0.0 0.0 0.00 0.00 0.00 87 1015.3
20260906104253 73 115 0.0 0.0 0.00 0.00 0.00 87 1015.6
20260906103752 73 115 0.0 0.0 0.00 0.00 0.00 87 1015.6
20260906103246 73 115 0.0 0.0 0.00 0.00 0.00 87 1015.6
20260906102742 73 115 0.0 0.0 0.00 0.00 0.00 87 1015.5
20260906102240 73 115 0.0 0.0 0.00 0.00 0.00 87 1015.4
20260906101736 73 115 0.0 0.0 0.00 0.00 0.00 88 1015.5
20260906101230 73 115 0.0 0.0 0.00 0.00 0.00 88 1015.4
20260906100726 73 115 0.0 0.0 0.00 0.00 0.00 88 1015.4
20260906100226 73 115 0.0 0.0 0.00 0.00 0.00 88 1015.3
20260906095721 73 115 0.0 0.0 0.00 0.00 0.00 88 1015.2
20260906095216 73 115 0.0 0.0 0.00 0.00 0.00 87 1015.3
20260906094714 73 115 0.0 0.0 0.00 0.00 0.00 87 1015.2
20260906094210 73 115 0.0 0.0 0.00 0.00 0.00 87 1015.2
20260906093707 74 115 0.0 0.0 0.00 0.00 0.00 87 1015.3
20260906093202 74 115 0.0 0.0 0.00 0.00 0.00 86 1015.3
20260906092657 74 115 0.0 0.0 0.00 0.00 0.00 85 1015.3
20260906092156 74 115 0.0 0.0 0.00 0.00 0.00 85 1015.2
20260906091653 74 115 0.0 0.0 0.00 0.00 0.00 84 1015.3
20260906091149 75 115 0.0 0.0 0.00 0.00 0.00 84 1015.0
20260906090645 75 115 0.0 0.0 0.00 0.00 0.00 83 1015.2
20260906090144 76 115 0.0 0.0 0.00 0.00 0.00 81 1014.9
20260906085643 76 115 0.0 0.0 0.00 0.00 0.00 81 1015.0
20260906085137 76 115 0.0 0.0 0.00 0.00 0.00 81 1014.9
20260906084632 76 115 0.0 0.0 0.00 0.00 0.00 80 1014.9
20260906084131 76 115 0.0 0.0 0.00 0.00 0.00 79 1014.8
20260906083626 77 115 0.0 0.0 0.00 0.00 0.00 78 1014.9
20260906083121 76 115 0.0 0.0 0.00 0.00 0.00 79 1014.8
20260906082616 77 115 0.0 0.0 0.00 0.00 0.00 79 1014.7
20260906082112 77 115 0.0 0.0 0.00 0.00 0.00 79 1015.1
20260906081608 77 115 0.0 0.0 0.00 0.00 0.00 78 1014.9
20260906081103 77 115 0.0 0.0 0.00 0.00 0.00 78 1014.9
20260906080559 77 115 0.0 0.0 0.00 0.00 0.00 78 1015.0
20260906080055 77 116 0.0 0.9 0.00 0.00 0.00 78 1015.0
20260906075549 76 115 0.0 0.0 0.00 0.00 0.00 79 1015.0
20260906075044 76 115 0.0 0.0 0.00 0.00 0.00 79 1015.0
20260906074539 77 115 0.0 0.0 0.00 0.00 0.00 78 1014.9
20260906074037 77 115 0.0 0.0 0.00 0.00 0.00 79 1014.9
20260906073532 77 115 0.0 0.0 0.00 0.00 0.00 78 1015.0
20260906073029 77 115 0.0 0.0 0.00 0.00 0.00 78 1015.0
20260906072523 77 115 0.0 0.0 0.00 0.00 0.00 78 1014.8
20260906072020 77 115 0.0 0.0 0.00 0.00 0.00 78 1015.1
20260906071515 77 116 0.0 0.0 0.00 0.00 0.00 78 1015.0
20260906071011 77 116 0.0 0.0 0.00 0.00 0.00 78 1014.8
20260906070507 77 116 0.0 0.0 0.00 0.00 0.00 78 1015.0
20260906070002 77 116 0.0 0.0 0.00 0.00 0.00 79 1014.9
20260906065502 77 116 0.0 0.0 0.00 0.00 0.00 78 1015.0
20260906064957 77 116 0.0 0.0 0.00 0.00 0.00 79 1014.8
20260906064453 77 116 0.0 0.0 0.00 0.00 0.00 79 1015.0
20260906063948 77 116 0.0 0.0 0.00 0.00 0.00 79 1015.0
20260906063444 77 116 0.0 0.0 0.00 0.00 0.00 79 1014.9
20260906062943 77 116 0.0 0.0 0.00 0.00 0.00 80 1015.0
20260906062439 77 116 0.0 0.0 0.00 0.00 0.00 80 1015.3
20260906061934 77 116 0.0 0.0 0.00 0.00 0.00 80 1015.3
20260906061429 77 116 0.0 0.0 0.00 0.00 0.00 80 1015.2
20260906060924 77 116 0.0 0.0 0.00 0.00 0.00 80 1015.3
20260906060421 77 116 0.0 0.0 0.00 0.00 0.00 81 1015.5
20260906055917 77 116 0.0 0.0 0.00 0.00 0.00 80 1015.7
20260906055413 77 116 0.0 0.0 0.00 0.00 0.00 80 1015.5
20260906054908 77 116 0.0 0.0 0.00 0.00 0.00 80 1015.4
20260906054403 77 116 0.0 0.0 0.00 0.00 0.00 81 1015.6
20260906053859 77 116 0.0 0.0 0.00 0.00 0.00 81 1015.4
20260906053354 77 116 0.0 0.0 0.00 0.00 0.00 80 1015.6
20260906052850 77 116 0.0 0.0 0.00 0.00 0.00 81 1015.6
20260906052346 77 116 0.0 0.0 0.00 0.00 0.00 81 1015.6
20260906051843 77 116 0.0 0.0 0.00 0.00 0.00 80 1015.4
20260906051342 77 116 0.0 0.0 0.00 0.00 0.00 80 1015.5
20260906050839 78 116 0.0 0.0 0.00 0.00 0.00 80 1015.6
20260906050333 78 116 0.0 0.0 0.00 0.00 0.00 80 1015.5
20260906045832 78 116 0.0 0.0 0.00 0.00 0.00 80 1015.7
20260906045326 78 116 0.0 0.0 0.00 0.00 0.00 80 1015.6
20260906044823 78 116 0.0 0.0 0.00 0.00 0.00 80 1015.7
20260906044317 78 116 0.0 0.0 0.00 0.00 0.00 80 1015.6
20260906043813 78 116 0.0 0.0 0.00 0.00 0.00 80 1015.4
20260906043308 78 116 0.0 0.0 0.00 0.00 0.00 80 1015.3
20260906042803 78 116 0.0 0.0 0.00 0.00 0.00 79 1015.5
20260906042306 78 116 0.0 0.0 0.00 0.00 0.00 79 1015.3
20260906041758 78 116 0.0 0.0 0.00 0.00 0.00 79 1015.2
20260906041252 78 116 0.0 0.0 0.00 0.00 0.00 79 1015.3
20260906040748 79 116 0.0 0.0 0.00 0.00 0.00 78 1015.2
20260906040243 79 116 0.0 0.0 0.00 0.00 0.00 78 1015.4
20260906035738 79 116 0.0 0.0 0.00 0.00 0.00 78 1015.4
20260906035234 79 116 0.0 0.0 0.00 0.00 0.00 77 1015.4
20260906034734 79 116 0.0 0.0 0.00 0.00 0.00 78 1015.3
20260906034229 79 116 0.0 0.0 0.00 0.00 0.00 77 1015.1
20260906033725 79 116 0.0 0.0 0.00 0.00 0.00 77 1015.1
20260906033224 79 116 0.0 0.0 0.00 0.00 0.00 78 1015.3
20260906032721 79 116 0.0 0.0 0.00 0.00 0.00 78 1015.1
20260906032221 78 116 0.0 0.0 0.00 0.00 0.00 78 1015.1
20260906031716 78 116 0.0 0.0 0.00 0.00 0.00 78 1015.1
20260906031212 79 116 0.0 0.0 0.00 0.00 0.00 79 1014.8
20260906030711 79 115 0.0 0.0 0.00 0.00 0.00 78 1014.8
20260906030206 79 115 0.0 0.0 0.00 0.00 0.00 78 1014.8
20260906025706 79 115 0.0 0.0 0.00 0.00 0.00 78 1014.9
20260906025200 79 115 0.0 0.0 0.00 0.00 0.00 78 1014.8
20260906024654 79 116 0.0 0.0 0.00 0.00 0.00 77 1014.9
20260906024153 79 115 0.0 0.0 0.00 0.00 0.00 77 1014.6
20260906023650 80 116 0.0 0.0 0.00 0.00 0.00 75 1014.7
20260906023150 80 116 0.0 0.0 0.00 0.00 0.00 74 1014.6
20260906022644 80 116 0.0 0.0 0.00 0.00 0.00 75 1014.5
20260906022140 80 116 0.0 0.0 0.00 0.00 0.00 74 1014.5
20260906021636 80 116 0.0 0.0 0.00 0.00 0.00 73 1014.3
20260906021135 80 116 0.0 0.0 0.00 0.00 0.00 72 1014.4
20260906020635 80 116 0.0 0.0 0.00 0.00 0.00 75 1014.2
20260906020130 80 116 0.0 0.0 0.00 0.00 0.00 75 1014.2
20260906015624 80 116 0.0 0.0 0.00 0.00 0.00 75 1014.1
20260906015122 80 116 0.0 0.0 0.00 0.00 0.00 73 1014.2
20260906014617 80 116 0.0 0.0 0.00 0.00 0.00 74 1013.7
20260906014114 80 116 0.0 0.0 0.00 0.00 0.00 73 1013.8
20260906013609 80 115 0.0 0.0 0.00 0.00 0.00 73 1014.0
20260906013104 81 116 0.0 0.0 0.00 0.00 0.00 72 1013.5
20260906012559 81 116 0.0 0.0 0.00 0.00 0.00 70 1013.8
20260906012058 81 116 0.0 0.0 0.00 0.00 0.00 70 1013.4
20260906011555 81 116 0.0 0.0 0.00 0.00 0.00 70 1013.7
20260906011049 82 116 0.0 0.0 0.00 0.00 0.00 69 1013.3
20260906010545 82 116 0.0 0.0 0.00 0.00 0.00 69 1013.4
20260906010041 82 116 0.0 0.0 0.00 0.00 0.00 69 1013.2
20260906005540 82 116 0.0 0.0 0.00 0.00 0.00 70 1013.2
20260906005039 83 116 0.0 0.0 0.00 0.00 0.00 71 1013.4
20260906004538 84 116 0.0 0.0 0.00 0.00 0.00 69 1013.3
20260906004033 84 116 0.0 0.0 0.00 0.00 0.00 68 1013.0
20260906003528 85 116 0.0 0.0 0.00 0.00 0.00 69 1013.5
20260906003025 86 116 0.0 0.0 0.00 0.00 0.00 69 1013.3
20260906002519 87 116 0.0 0.0 0.00 0.00 0.00 68 1013.4
20260906002014 88 116 0.0 0.0 0.00 0.00 0.00 64 1013.1
20260906001510 89 116 0.0 0.0 0.00 0.00 0.00 63 1013.6
20260906001004 90 116 0.0 0.0 0.00 0.00 0.00 62 1013.4
20260906000500 92 116 0.0 0.0 0.00 0.00 0.00 57 1013.5
20260906000000 92 116 0.0 0.0 0.00 0.00 0.00 57 1013.2
20260905235454 93 116 0.0 0.0 0.00 0.00 0.00 52 1013.5
20260905234949 94 116 0.0 0.0 0.00 0.00 0.00 49 1013.4
20260905234444 95 116 0.0 0.0 0.00 0.00 0.00 52 1013.3
20260905233938 96 115 0.0 0.0 0.00 0.00 0.00 45 1013.4
20260905233434 96 122 0.0 0.0 0.00 0.00 0.00 42 1013.6
20260905232933 98 127 0.0 0.0 0.00 0.00 0.00 46 1013.2
20260905232429 98 127 0.0 0.0 0.00 0.00 0.00 39 1013.3
20260905231924 99 117 0.9 0.9 0.00 0.00 0.00 38 1013.6
20260905231420 100 125 0.0 0.0 0.00 0.00 0.00 41 1013.6
20260905230917 100 137 0.0 0.9 0.00 0.00 0.00 37 1013.6
20260905230415 102 131 0.9 0.9 0.00 0.00 0.00 37 1013.6
20260905225914 102 102 0.0 0.0 0.00 0.00 0.00 37 1013.4
20260905225409 102 77 0.0 0.0 0.00 0.00 0.00 36 1013.5
20260905224904 102 107 0.0 0.0 0.00 0.00 0.00 36 1013.4
20260905224359 100 57 0.9 0.9 0.00 0.00 0.00 36 1013.5
20260905223854 98 116 0.0 0.0 0.00 0.00 0.00 44 1013.5
20260905223351 97 115 0.0 0.0 0.00 0.00 0.00 43 1013.5
20260905222846 100 116 0.9 0.9 0.00 0.00 0.00 41 1013.5
20260905222345 102 130 0.0 0.0 0.00 0.00 0.00 38 1013.3
20260905221841 104 130 0.0 0.0 0.00 0.00 0.00 35 1013.3
20260905221337 102 128 0.0 0.9 0.00 0.00 0.00 36 1013.4
20260905220833 100 110 0.0 0.0 0.00 0.00 0.00 38 1013.6
20260905220329 100 86 0.0 0.0 0.00 0.00 0.00 37 1013.6
20260905215828 102 129 0.0 0.9 0.00 0.00 0.00 36 1013.6
20260905215324 102 121 0.0 0.9 0.00 0.00 0.00 37 1013.5
20260905214821 105 127 0.0 0.0 0.00 0.00 0.00 33 1013.6
20260905214315 104 109 0.0 0.9 0.00 0.00 0.00 34 1013.8
20260905213810 103 197 2.6 4.3 0.00 0.00 0.00 34 1013.6
20260905213306 102 165 0.9 1.7 0.00 0.00 0.00 34 1013.7
20260905212801 105 160 3.5 4.3 0.00 0.00 0.00 32 1014.1
20260905212301 104 120 0.0 0.0 0.00 0.00 0.00 33 1013.8
20260905211755 105 147 0.9 0.9 0.00 0.00 0.00 33 1014.1
20260905211250 106 118 1.7 1.7 0.00 0.00 0.00 33 1014.1
20260905210747 104 94 0.0 0.0 0.00 0.00 0.00 33 1014.1
20260905210247 103 113 0.0 0.0 0.00 0.00 0.00 36 1014.1
20260905205745 104 81 0.9 1.7 0.00 0.00 0.00 34 1014.2
20260905205240 102 143 0.9 1.7 0.00 0.00 0.00 34 1014.3
20260905204740 100 117 0.0 0.0 0.00 0.00 0.00 37 1014.3
20260905204236 100 137 1.7 1.7 0.00 0.00 0.00 39 1014.4
20260905203735 102 134 1.7 1.7 0.00 0.00 0.00 37 1014.4
20260905203231 100 123 0.0 0.0 0.00 0.00 0.00 36 1014.6
20260905202726 102 142 0.9 0.9 0.00 0.00 0.00 35 1014.7
20260905202221 103 185 1.7 1.7 0.00 0.00 0.00 34 1014.7
20260905201716 103 82 0.9 0.9 0.00 0.00 0.00 34 1014.7
20260905201211 103 35 2.6 2.6 0.00 0.00 0.00 34 1014.8
20260905200706 102 108 0.0 0.9 0.00 0.00 0.00 34 1015.0
20260905200202 101 154 0.9 0.9 0.00 0.00 0.00 36 1014.8
20260905195700 100 171 0.9 1.7 0.00 0.00 0.00 37 1015.0
20260905195155 101 148 1.7 1.7 0.00 0.00 0.00 42 1015.1
20260905194650 101 114 0.9 0.9 0.00 0.00 0.00 38 1014.9
20260905194149 100 126 0.0 0.0 0.00 0.00 0.00 36 1015.0
20260905193644 97 135 0.0 0.9 0.00 0.00 0.00 44 1015.1
20260905193139 98 134 0.9 0.9 0.00 0.00 0.00 43 1015.2
20260905192634 98 79 0.0 0.0 0.00 0.00 0.00 41 1015.3
20260905192131 99 133 0.0 0.0 0.00 0.00 0.00 41 1015.2
20260905191630 98 131 0.0 0.9 0.00 0.00 0.00 40 1015.3
20260905191128 99 99 0.0 0.0 0.00 0.00 0.00 40 1015.2
20260905190627 100 107 0.9 0.9 0.00 0.00 0.00 40 1015.5
20260905190126 100 237 1.7 2.6 0.00 0.00 0.00 37 1015.4
20260905185625 101 193 2.6 2.6 0.00 0.00 0.00 38 1015.6
20260905185120 101 142 0.9 0.9 0.00 0.00 0.00 37 1015.7
20260905184615 102 106 0.9 0.9 0.00 0.00 0.00 37 1015.6
20260905184114 100 100 0.9 0.9 0.00 0.00 0.00 38 1015.7
20260905183613 99 274 2.6 2.6 0.00 0.00 0.00 38 1016.0
20260905183109 100 251 1.7 1.7 0.00 0.00 0.00 39 1016.0
20260905182608 100 170 2.6 2.6 0.00 0.00 0.00 39 1016.0
20260905182102 98 115 0.0 0.0 0.00 0.00 0.00 40 1016.0
20260905181602 97 115 0.0 0.0 0.00 0.00 0.00 47 1016.1
20260905181101 97 115 0.9 0.9 0.00 0.00 0.00 42 1016.4
20260905180556 97 128 0.0 0.9 0.00 0.00 0.00 42 1016.2
20260905180052 100 338 2.6 2.6 0.00 0.00 0.00 40 1016.4